Flag for Morocco Weather past 2 weeks in Marrakech, Morocco

Now
75 °F

Clear.


Feels Like: 77 °F
Forecast: 78 / 100 °F
Wind: 7 mph from Northeast

Location: Marrakech Airport

Current Time: Aug 28, 2015 at 3:40:17 AM

Latest Report: Aug 28, 2015 at 3:00 AM


Visibility: 10 mi

Pressure: 29.95 "Hg

Humidity: 69%

Dew point: 64 °F

Location of MarrakechLocation

Historic Weather in Marrakech — Graph

°F

Marrakech temperature yesterday

Maximum temperature yesterday: 93 °F (at 5:00 PM)
Minimum temperature yesterday: 64 °F (at 7:00 AM)
Average temperature yesterday: 78 °F

Past Weeks' High & Low Weather Summary

 TemperatureHumidityPressure
High97 °F (Aug 21, 4:30 PM)94% (Aug 22, 8:00 AM)30.24 "Hg (Aug 22, 8:00 AM)
Low63 °F (Aug 16, 7:30 AM)21% (Aug 16, 8:00 PM)29.89 "Hg (Aug 17, 5:30 PM)
Average79 °F58%30.04 "Hg
* Reported Aug 13 2:00 AM — Aug 28 2:30 AM, Marrakech, Weather by CustomWeather, © 2015

Note: Actual official high and low records may vary slightly from our data, if they occured in-between our weather recording intervals... More about our weather records

Advertising

Marrakech weather history for previous 24 hours

 ConditionsComfort  
Time TempWeatherWind HumidityBarometerVisibility
2:30 AM
Fri, Aug 28
75 °FClear.6 mph69%29.95 "Hg6 mi
2:00 AM75 °FClear.3 mph69%29.95 "Hg5 mi
1:30 AM77 °FClear.2 mph65%29.98 "Hg6 mi
1:00 AM77 °FClear.6 mph65%29.98 "Hg10 mi
12:30 AM79 °FClear.7 mph61%29.98 "Hg10 mi
12:00 AM79 °FClear.8 mph61%29.98 "Hg10 mi
11:00 PM
Thu, Aug 27
81 °FClear.9 mph58%30.01 "Hg10 mi
10:30 PM81 °FClear.12 mph58%30.01 "Hg10 mi
10:00 PM82 °FClear.10 mph51%30.01 "Hg10 mi
9:30 PM82 °FPassing clouds.10 mph48%29.98 "HgN/A
9:00 PM84 °FClear.12 mph45%29.98 "Hg10 mi
8:30 PM86 °FPassing clouds.12 mph43%29.98 "HgN/A
8:00 PM88 °FPassing clouds.12 mph40%29.95 "HgN/A
7:30 PM91 °FPassing clouds.10 mph38%29.95 "HgN/A
7:00 PM93 °FPassing clouds.9 mph34%29.95 "HgN/A
6:30 PM93 °FPassing clouds.7 mph34%29.95 "HgN/A
6:00 PM93 °FSunny.2 mph36%29.95 "Hg10 mi
5:30 PM93 °FSunny.5 mph36%29.95 "Hg10 mi
5:00 PM93 °FPassing clouds.5 mph36%29.95 "HgN/A
4:30 PM91 °FClear.5 mph38%29.95 "Hg4 mi
4:00 PM91 °FClear.6 mph38%29.95 "Hg4 mi
3:30 PM90 °FClear.5 mph41%29.95 "Hg5 mi
2:30 PM86 °FSunny.3 mph43%29.98 "Hg10 mi
2:00 PM86 °FSunny.3 mph46%30.01 "Hg10 mi
1:30 PM84 °FWarm.6 mph45%30.01 "HgN/A
1:00 PM82 °FPassing clouds.7 mph48%30.01 "HgN/A
12:30 PM81 °FPassing clouds.7 mph51%30.01 "HgN/A
12:00 PM79 °FPassing clouds.7 mph54%30.01 "HgN/A
11:30 AM77 °FPassing clouds.7 mph57%30.01 "HgN/A
11:00 AM75 °FPassing clouds.5 mph61%30.01 "HgN/A
10:30 AM73 °FPassing clouds.3 mph65%30.01 "HgN/A
10:00 AM72 °FPassing clouds.3 mph73%30.01 "HgN/A
9:30 AM70 °FPassing clouds.5 mph78%30.01 "HgN/A
9:00 AM68 °FSunny.7 mph83%30.01 "Hg10 mi
8:30 AM66 °FSunny.6 mph88%30.01 "Hg10 mi
8:00 AM64 °FSunny.6 mph94%29.98 "Hg10 mi
7:30 AM64 °FSunny.3 mph88%29.98 "Hg10 mi
7:00 AM64 °FClear.2 mph88%29.98 "Hg10 mi
6:30 AM66 °FPassing clouds.3 mph88%29.98 "HgN/A
6:00 AM68 °FClear.6 mph83%29.98 "Hg10 mi
5:30 AM66 °FMild.7 mph88%29.98 "HgN/A
5:00 AM66 °FClear.7 mph88%29.98 "Hg10 mi
4:30 AM66 °FClear.5 mph83%30.01 "Hg10 mi
4:00 AM66 °FClear.3 mph83%30.01 "Hg10 mi
3:30 AM68 °FMild.5 mph78%30.01 "HgN/A
3:00 AM70 °FClear.6 mph73%30.01 "Hg10 mi
Weather by CustomWeather, © 2015

See weather overviewHow to use our weather pages